Fargo, ND

4:14 AM CDT on May 23, 2017 (GMT -0500)
Hector International

Weather History for KFAR - April, 2012

Change the Weather History Date:

Thursday, April 12, 2012

  Actual Average Record
Temperature  
Mean Temperature 50 °F 42 °F  
Max Temperature 68 °F 54 °F 76 °F (1954)
Min Temperature 32 °F 31 °F 1 °F (1881)
Degree Days  
Heating Degree Days 15 23  
Month to date heating degree days 225 308  
Since 1 July heating degree days 6376 8138  
Cooling Degree Days 0 0  
Month to date cooling degree days 0 0  
Year to date cooling degree days 6 0  
Moisture  
Dew Point 21 °F    
Average Humidity 34    
Maximum Humidity 52    
Minimum Humidity 16    
Precipitation  
Precipitation T in 0.04 in 0.98 in (1893)
Month to date precipitation T 0.47  
Year to date precipitation 2.31 3.08  
Snow  
Snow 0.00 in 0.10 in 2.00 in (1924)
Month to date snowfall T 1.5  
Since 1 July snowfall 27.0 48.6  
Snow Depth 0.00 in    
Sea Level Pressure  
Sea Level Pressure 30.02 in    
Wind  
Wind Speed 13 mph (SE)    
Max Wind Speed 26 mph    
Max Gust Speed 36 mph    
Visibility 10 miles    
Events      
T = Trace of Precipitation, MM = Missing Value Source: NWS Daily Summary

Daily Weather History Graph

Daily Weather History Graph

Search for Another Location

Airport or City:

Trip Planner

Search our weather history database for the weather conditions in past years. The results will help you decide how hot, cold, wet, or windy it might be!

Date:

Astronomy

Apr. 12, 2012 Rise Set
Actual Time 6:44 AM CDT 8:12 PM CDT
Civil Twilight 6:12 AM CDT 8:44 PM CDT
Nautical Twilight 5:34 AM CDT 9:22 PM CDT
Astronomical Twilight 4:53 AM CDT 10:04 PM CDT
Moon 2:13 AM CDT (4/12) 11:28 AM CDT (4/12)
Length of Visible Light 14h 31m
Length of Day
13h 28m
Waning Gibbous, 58% of the Moon is Illuminated
Apr 12
Waning Gibbous
Apr 13
Last Quarter
Apr 21
New
Apr 29
First Quarter
May 5
Full

Hourly Weather History & Observations

Time (CDT) Temp. Windchill Dew Point Humidity Pressure Visibility Wind Dir Wind Speed Gust Speed Precip Events Conditions
12:53 AM 37.0 °F 32.4 °F 14.0 °F 39% 30.18 in 10.0 mi ESE 5.8 mph - N/A   Clear
1:53 AM 33.8 °F 27.7 °F 12.2 °F 41% 30.14 in 10.0 mi ESE 6.9 mph - N/A   Clear
2:53 AM 33.1 °F 26.9 °F 14.0 °F 46% 30.15 in 10.0 mi East 6.9 mph - N/A   Clear
3:53 AM 33.1 °F 26.9 °F 15.1 °F 48% 30.14 in 10.0 mi ESE 6.9 mph - N/A   Clear
4:53 AM 34.0 °F 27.2 °F 17.1 °F 50% 30.13 in 10.0 mi ESE 8.1 mph - N/A   Clear
5:53 AM 34.0 °F 27.2 °F 18.0 °F 52% 30.11 in 10.0 mi ESE 8.1 mph - N/A   Clear
6:53 AM 36.0 °F 30.3 °F 19.0 °F 50% 30.12 in 10.0 mi ESE 6.9 mph - N/A   Clear
7:53 AM 39.0 °F 32.3 °F 19.9 °F 46% 30.11 in 10.0 mi SE 10.4 mph - N/A   Clear
8:53 AM 46.0 °F 40.2 °F 19.0 °F 34% 30.08 in 10.0 mi SE 12.7 mph - N/A   Clear
9:53 AM 51.1 °F - 19.0 °F 28% 30.06 in 10.0 mi SE 11.5 mph - N/A   Clear
10:53 AM 57.9 °F - 19.0 °F 22% 30.04 in 10.0 mi SE 13.8 mph 21.9 mph N/A   Clear
11:53 AM 63.0 °F - 19.0 °F 18% 30.02 in 10.0 mi SSE 19.6 mph 26.5 mph N/A   Clear
12:53 PM 64.0 °F - 18.0 °F 17% 29.99 in 10.0 mi SSE 21.9 mph 29.9 mph N/A   Clear
1:53 PM 66.0 °F - 19.9 °F 17% 29.96 in 10.0 mi SSE 21.9 mph 27.6 mph N/A   Clear
2:53 PM 64.9 °F - 19.9 °F 18% 29.96 in 10.0 mi SSE 23.0 mph 32.2 mph N/A   Overcast
3:53 PM 64.9 °F - 19.9 °F 18% 29.95 in 10.0 mi South 17.3 mph 35.7 mph N/A   Overcast
4:53 PM 64.9 °F - 21.0 °F 19% 29.94 in 10.0 mi South 21.9 mph 28.8 mph N/A   Overcast
5:53 PM 63.0 °F - 21.0 °F 20% 29.93 in 10.0 mi SSE 16.1 mph 31.1 mph N/A   Overcast
6:53 PM 61.0 °F - 24.1 °F 24% 29.90 in 10.0 mi SE 13.8 mph - N/A   Overcast
7:53 PM 57.9 °F - 30.9 °F 36% 29.90 in 10.0 mi SE 10.4 mph - 0.00 in   Overcast
8:53 PM 59.0 °F - 25.0 °F 27% 29.91 in 10.0 mi SE 13.8 mph 25.3 mph N/A   Overcast
9:53 PM 54.0 °F - 33.1 °F 45% 29.91 in 10.0 mi SSE 4.6 mph - 0.00 in   Overcast
10:53 PM 54.0 °F - 30.0 °F 40% 29.91 in 10.0 mi SSE 11.5 mph - 0.00 in   Overcast
11:53 PM 54.0 °F - 28.9 °F 38% 29.89 in 10.0 mi SSE 13.8 mph - N/A   Overcast